DW3753 Weather Reports


Display with metric or nautical units.
time (UTC)temp
F
wind
direction
speed
MPH
gust
MPH
rain 1hr
in
rain 24hr
in
rain mn
in
humidity
%
barometer
mb
20260831023923 90 169 1.0 2.0 0.00 0.00 0.00 39 1011.7
20260831022922 90 158 0.0 1.0 0.00 0.00 0.00 39 1011.6
20260831021923 91 158 0.0 1.0 0.00 0.00 0.00 38 1011.6
20260831020926 91 158 1.0 3.0 0.00 0.00 0.00 38 1011.3
20260831015921 91 162 1.0 4.0 0.00 0.00 0.00 38 1011.2
20260831014922 92 159 1.0 3.0 0.00 0.00 0.00 37 1010.9
20260831013925 92 167 1.0 4.0 0.00 0.00 0.00 37 1010.9
20260831012921 93 141 1.0 4.0 0.00 0.00 0.00 36 1010.8
20260831011920 93 161 2.0 7.0 0.00 0.00 0.00 36 1010.6
20260831010920 94 143 2.0 5.0 0.00 0.00 0.00 34 1010.7
20260831005920 95 155 2.0 7.0 0.00 0.00 0.00 33 1010.6
20260831004920 96 148 4.0 10.0 0.00 0.00 0.00 33 1010.6
20260831003916 96 151 5.0 11.0 0.00 0.00 0.00 32 1010.5
20260831002919 97 128 3.0 10.0 0.00 0.00 0.00 32 1010.5
20260831001915 97 165 4.0 13.0 0.00 0.00 0.00 31 1010.5
20260831000914 98 192 4.0 12.0 0.00 0.00 0.00 30 1010.5
20260830235916 98 154 5.0 11.0 0.00 0.00 0.00 30 1010.6
20260830234912 98 184 4.0 12.0 0.00 0.00 0.00 30 1010.7
20260830233913 98 124 4.0 12.0 0.00 0.00 0.00 31 1010.6
20260830232911 99 132 3.0 11.0 0.00 0.00 0.00 30 1010.6
20260830231911 99 150 2.0 8.0 0.00 0.00 0.00 29 1010.6
20260830230912 99 92 4.0 10.0 0.00 0.00 0.00 28 1010.6
20260830225912 100 164 4.0 10.0 0.00 0.00 0.00 29 1010.7
20260830224909 100 171 3.0 10.0 0.00 0.00 0.00 29 1010.7
20260830223908 100 169 3.0 9.0 0.00 0.00 0.00 29 1010.8
20260830222909 100 167 4.0 14.0 0.00 0.00 0.00 29 1010.8
20260830221908 100 153 6.0 12.0 0.00 0.00 0.00 28 1010.8
20260830221346 101 130 4.0 13.0 0.00 0.00 0.00 28 1010.8
20260830215907 100 78 3.0 9.0 0.00 0.00 0.00 29 1010.7
20260830215401 101 90 4.0 11.0 0.00 0.00 0.00 29 1010.8
20260830213907 100 222 5.0 13.0 0.00 0.00 0.00 29 1010.9
20260830212904 100 176 3.0 17.0 0.00 0.00 0.00 30 1011.1
20260830211906 100 173 3.0 8.0 0.00 0.00 0.00 30 1011.1
20260830210906 101 155 3.0 13.0 0.00 0.00 0.00 30 1011.3
20260830205904 101 156 5.0 14.0 0.00 0.00 0.00 30 1011.5
20260830205343 100 167 4.0 15.0 0.00 0.00 0.00 30 1011.6
20260830203904 100 150 6.0 11.0 0.00 0.00 0.00 31 1011.8
20260830202904 99 181 7.0 17.0 0.00 0.00 0.00 31 1011.8
20260830201905 100 155 6.0 13.0 0.00 0.00 0.00 31 1012.0
20260830200904 99 147 3.0 11.0 0.00 0.00 0.00 31 1012.0
20260830200356 99 156 7.0 15.0 0.00 0.00 0.00 32 1012.3
20260830194906 99 147 3.0 11.0 0.00 0.00 0.00 34 1012.3
20260830193906 99 154 7.0 24.0 0.00 0.00 0.00 34 1012.5
20260830193821 99 83 6.0 14.0 0.00 0.00 0.00 33 1012.6
20260830192349 98 157 8.0 16.0 0.00 0.00 0.00 32 1012.6
20260830190904 98 192 6.0 13.0 0.00 0.00 0.00 32 1012.8
20260830185904 98 155 4.0 13.0 0.00 0.00 0.00 34 1012.9
20260830184902 97 125 5.0 18.0 0.00 0.00 0.00 35 1013.1
20260830183904 97 163 8.0 20.0 0.00 0.00 0.00 36 1013.2
20260830182902 97 187 7.0 15.0 0.00 0.00 0.00 35 1013.2
20260830181902 97 172 10.0 18.0 0.00 0.00 0.00 36 1013.5
20260830180905 96 215 9.0 16.0 0.00 0.00 0.00 36 1013.7
20260830175903 96 200 7.0 14.0 0.00 0.00 0.00 36 1013.9
20260830174900 97 180 8.0 18.0 0.00 0.00 0.00 38 1014.0
20260830173905 96 175 7.0 16.0 0.00 0.00 0.00 38 1014.2
20260830172858 96 162 7.0 20.0 0.00 0.00 0.00 41 1014.3
20260830171858 95 210 8.0 18.0 0.00 0.00 0.00 41 1014.3
20260830170900 95 199 11.0 22.0 0.00 0.00 0.00 42 1014.5
20260830165900 95 215 10.0 16.0 0.00 0.00 0.00 42 1014.6
20260830164859 94 176 7.0 17.0 0.00 0.00 0.00 45 1014.8
20260830163903 94 162 8.0 17.0 0.00 0.00 0.00 44 1014.9
20260830162859 93 182 8.0 15.0 0.00 0.00 0.00 46 1014.9
20260830161858 93 201 7.0 16.0 0.00 0.00 0.00 47 1015.0
20260830160856 92 167 7.0 12.0 0.00 0.00 0.00 50 1014.9
20260830155857 92 139 7.0 12.0 0.00 0.00 0.00 50 1014.9
20260830155831 92 195 7.0 12.0 0.00 0.00 0.00 50 1015.0
20260830154827 91 219 7.0 14.0 0.00 0.00 0.00 53 1014.9
20260830152852 90 194 6.0 10.0 0.00 0.00 0.00 53 1014.9
20260830151852 89 183 7.0 11.0 0.00 0.00 0.00 54 1014.9
20260830151331 89 217 5.0 9.0 0.00 0.00 0.00 54 1014.9
20260830150339 88 207 6.0 12.0 0.00 0.00 0.00 55 1014.8
20260830145331 87 219 6.0 10.0 0.00 0.00 0.00 56 1014.9
20260830143846 86 185 7.0 10.0 0.00 0.00 0.00 58 1014.9
20260830142846 85 202 6.0 10.0 0.00 0.00 0.00 60 1014.9
20260830141846 85 186 7.0 10.0 0.00 0.00 0.00 60 1014.9
20260830140842 84 198 7.0 12.0 0.00 0.00 0.00 61 1014.9
20260830135843 83 202 6.0 11.0 0.00 0.00 0.00 63 1014.9
20260830134842 83 200 5.0 9.0 0.00 0.00 0.00 64 1014.9
20260830133842 82 185 5.0 10.0 0.00 0.00 0.00 66 1014.9
20260830132844 81 194 5.0 10.0 0.00 0.00 0.00 66 1014.8
20260830131838 81 142 5.0 9.0 0.00 0.00 0.00 67 1014.7
20260830130838 81 175 5.0 9.0 0.00 0.00 0.00 68 1014.6
20260830125834 80 194 5.0 7.0 0.00 0.00 0.00 68 1014.4
20260830124836 80 194 4.0 8.0 0.00 0.00 0.00 69 1014.3
20260830124309 80 184 5.0 7.0 0.00 0.00 0.00 69 1014.3
20260830122836 79 177 5.0 9.0 0.00 0.00 0.00 69 1014.2
20260830121834 79 189 4.0 8.0 0.00 0.00 0.00 69 1014.0
20260830120834 79 182 4.0 8.0 0.00 0.00 0.00 68 1014.0
20260830115835 79 193 3.0 7.0 0.00 0.00 0.00 68 1013.8
20260830114834 80 179 4.0 7.0 0.00 0.00 0.00 67 1013.8
20260830114743 80 187 4.0 9.0 0.00 0.00 0.00 67 1013.6
20260830113326 80 198 4.0 7.0 0.00 0.00 0.00 66 1013.5
20260830111831 80 189 4.0 7.0 0.00 0.00 0.00 66 1013.4
20260830110834 80 177 4.0 8.0 0.00 0.00 0.00 65 1013.4
20260830105827 80 199 4.0 7.0 0.00 0.00 0.00 65 1013.2
20260830104823 80 198 4.0 6.0 0.00 0.00 0.00 64 1013.2
20260830103822 81 196 4.0 6.0 0.00 0.00 0.00 63 1013.1
20260830103254 81 199 4.0 7.0 0.00 0.00 0.00 63 1013.0
20260830101818 81 192 4.0 7.0 0.00 0.00 0.00 62 1013.0
20260830100819 81 187 4.0 7.0 0.00 0.00 0.00 62 1012.9
20260830100258 82 195 5.0 8.0 0.00 0.00 0.00 62 1012.9
20260830095309 82 186 5.0 7.0 0.00 0.00 0.00 61 1012.9
20260830093821 82 190 5.0 8.0 0.00 0.00 0.00 61 1012.9
20260830092819 82 163 5.0 8.0 0.00 0.00 0.00 60 1012.9
20260830091816 82 192 4.0 7.0 0.00 0.00 0.00 60 1012.8
20260830090819 82 182 5.0 7.0 0.00 0.00 0.00 59 1012.9
20260830085817 83 190 4.0 7.0 0.00 0.00 0.00 59 1012.8
20260830084817 83 188 4.0 8.0 0.00 0.00 0.00 58 1012.8
20260830083818 83 185 4.0 8.0 0.00 0.00 0.00 58 1012.9
20260830082816 83 194 4.0 7.0 0.00 0.00 0.00 58 1012.8
20260830081816 83 192 4.0 7.0 0.00 0.00 0.00 57 1012.9
20260830080818 83 200 5.0 8.0 0.00 0.00 0.00 57 1012.8
20260830075821 84 188 6.0 9.0 0.00 0.00 0.00 56 1012.9
20260830074822 85 203 7.0 12.0 0.00 0.00 0.00 55 1013.0
20260830073818 85 186 6.0 10.0 0.00 0.00 0.00 55 1012.9
20260830072818 85 187 6.0 11.0 0.00 0.00 0.00 55 1013.0
20260830072306 85 182 6.0 10.0 0.00 0.00 0.00 54 1013.0
20260830070816 86 188 6.0 12.0 0.00 0.00 0.00 53 1013.1
20260830065817 86 193 6.0 11.0 0.00 0.00 0.00 53 1013.1
20260830064817 86 198 6.0 11.0 0.00 0.00 0.00 52 1013.1
20260830063816 87 161 6.0 12.0 0.00 0.00 0.00 52 1013.1
20260830062817 87 199 5.0 10.0 0.00 0.00 0.00 51 1013.1
20260830061818 87 180 5.0 10.0 0.00 0.00 0.00 50 1013.2
20260830060818 87 194 5.0 10.0 0.00 0.00 0.00 50 1013.1
20260830055818 88 190 5.0 9.0 0.00 0.00 0.00 49 1013.1
20260830054817 88 165 5.0 10.0 0.00 0.00 0.00 48 1013.1
20260830054800 89 157 4.0 12.0 0.00 0.00 0.00 47 1013.1
20260830052818 89 163 4.0 9.0 0.00 0.00 0.00 46 1013.1
20260830052257 89 134 3.0 8.0 0.00 0.00 0.00 46 1013.2
20260830050817 89 144 3.0 7.0 0.00 0.00 0.00 45 1013.0
20260830045815 89 157 3.0 7.0 0.00 0.00 0.00 45 1013.1
20260830044817 89 144 2.0 5.0 0.00 0.00 0.00 45 1013.1
20260830043815 89 140 1.0 6.0 0.00 0.00 0.00 44 1013.1
20260830042814 89 128 2.0 7.0 0.00 0.00 0.00 44 1013.1
20260830041814 89 131 2.0 9.0 0.00 0.00 0.00 44 1013.0
20260830040814 90 169 2.0 4.0 0.00 0.00 0.00 43 1013.0
20260830035814 90 153 1.0 5.0 0.00 0.00 0.00 43 1012.9
20260830034816 90 165 1.0 4.0 0.00 0.00 0.00 43 1013.0
20260830033814 90 161 1.0 3.0 0.00 0.00 0.00 42 1012.9
20260830032819 90 106 0.0 2.0 0.00 0.00 0.00 41 1012.9
20260830031815 91 158 1.0 3.0 0.00 0.00 0.00 40 1012.8
20260830030823 91 152 2.0 5.0 0.00 0.00 0.00 40 1012.7
20260830025818 92 151 2.0 7.0 0.00 0.00 0.00 39 1012.5
20260830024816 92 146 2.0 6.0 0.00 0.00 0.00 38 1012.5
20260830024307 92 149 2.0 7.0 0.00 0.00 0.00 38 1012.4